Regional Weather Roundup
Issued by NWS Upton, NY

Current Version | Previous Version | Text Only | Print | Product List | Glossary On
Versions: 1 2 3 4 5 6 7 8 9 10 11 12 13 14 15 16 17 18 19 20 21 22 23 24 25 26 27 28 29
000 ASUS41 KOKX 281104 RWROKX REGIONAL WEATHER ROUNDUP NATIONAL WEATHER SERVICE NEW YORK NY 700 AM EDT SUN AUG 28 2016 NOTE: "FAIR" INDICATES FEW OR NO CLOUDS BELOW 12,000 FEET WITH NO SIGNIFICANT WEATHER AND/OR OBSTRUCTIONS TO VISIBILITY. NYZ071-072-176-178-NJZ106-104-281200- NEW YORK CITY METRO AREA CITY SKY/WX TMP DP RH WIND PRES REMARKS Central Park CLEAR 73 67 81 CALM 30.29R LaGuardia APRT CLEAR 74 70 87 E5 30.25R Kennedy INTL PTCLDY 75 70 84 NE6 30.26R Newark/Liberty PTCLDY 73 70 90 NE3 30.25R Bronx Bot Gard N/A 70 68 94 E2 30.27F Wall St Helipt SUNNY 75 72 88 NE5 30.26S Teterboro CLEAR 68 62 81 NW3 30.25R $$ NYZ177-179-078>081-281200- LONG ISLAND NEW YORK CITY SKY/WX TMP DP RH WIND PRES REMARKS Farmingdale CLEAR 69 65 86 N3 30.27R MacArthur/ISP PTCLDY 68 66 93 CALM 30.26R Shirley CLEAR 64 62 93 CALM 30.28R Riverhead NOT AVBL Westhampton CLEAR 61 58 90 CALM 30.29R Southampton N/A 68 66 94 CALM 30.24R Bridgehampton N/A 64 63 94 CALM 30.26R East Hampton FAIR 61 59 94 CALM 30.27R Montauk N/A 66 63 90 CALM 30.29R $$ NYZ052-065-067-281200- HUDSON VALLEY CITY SKY/WX TMP DP RH WIND PRES REMARKS White Plains CLEAR 67 65 93 CALM 30.27R Newburgh CLEAR 63 61 94 CALM 30.29R Montgomery CLEAR 60 59 96 CALM 30.28R Poughkeepsie CLEAR 62 60 93 CALM 30.26R Albany PTCLDY 65 63 93 CALM 30.25R $$ NJZ001-105-106-008-010-013-015-019>022-104-281200- NEW JERSEY CITY SKY/WX TMP DP RH WIND PRES REMARKS Newark/Liberty PTCLDY 73 70 90 NE3 30.25R Teterboro CLEAR 68 62 81 NW3 30.25R Caldwell CLEAR 64 62 93 CALM 30.28R Morristown PTCLDY 59 59 100 CALM 30.27R Somerville PTCLDY 61 58 90 MISG 30.26R Linden FAIR 69 65 86 CALM 30.28R Sussex CLEAR 59 59 100 CALM 30.28R Abdover N/A 59 58 96 CALM 30.29R Trenton FOG 65 63 93 N6 30.26R VSB 1/4 Millville CLEAR 66 66 100 N3 30.24R Atlantic City CLEAR 65 63 93 CALM 30.23R Wrightstown CLEAR 62 62 99 NW5 30.23R Toms River CLEAR 60 57 89 CALM 30.25R Belmar CLEAR 66 63 90 CALM 30.27R $$ PAZ047>061-062-071-281200- EASTERN PENNSYLVANIA CITY SKY/WX TMP DP RH WIND PRES REMARKS Philadelphia PTCLDY 71 68 90 NE3 30.25R Allentown CLEAR 61 58 90 N3 30.28R Scranton CLEAR 63 59 87 CALM 30.28R $$ CTZ002-004>006-009-010-012-RIZ004-006-007-MAZ004-011-015-281200- SOUTHERN NEW ENGLAND IN CT CITY SKY/WX TMP DP RH WIND PRES REMARKS Bradley INTL MOCLDY 65 61 87 CALM 30.29R Hartford PTCLDY 69 66 90 CALM 30.28R Danbury PTCLDY 60 58 92 CALM 30.30R Wtrbury/Oxford PTCLDY 63 59 88 CALM 30.30R Bridgeport CLEAR 72 66 81 CALM 30.27R Meriden PTCLDY 64 61 90 CALM 30.28R New Haven PTCLDY 66 65 96 CALM 30.28R Chester FAIR 66 66 100 MISG N/A Groton CLEAR 67 63 87 N3 30.28R Wilimantic PTCLDY 62 61 96 CALM 30.30R IN RI CITY SKY/WX TMP DP RH WIND PRES REMARKS Providence PTCLDY 67 63 87 W3 30.29R Block Island PTCLDY 69 62 78 CALM 30.29R Westerly CLEAR 63 59 87 CALM 30.29R IN MA CITY SKY/WX TMP DP RH WIND PRES REMARKS Boston MOCLDY 69 65 86 CALM 30.29R Worcester CLEAR 64 61 90 SW7 30.31R Westfield CLOUDY 64 63 96 CALM 30.28R Provincetown PTCLDY 61 59 93 E3 30.29R Nantucket CLEAR 64 61 90 NE7 30.27R $$ ANZ330-335-338-340-345-350-353-355-281200- COASTAL MARINE OBSERVATIONS STATION/POSITION TIME SKY/WX TEMP WIND PRES VSBY WAVE AIR SEA DIR/SP/G HT/PER (UTC) (F) (DEG/KT/KT) (MB) (MI) (FT/S) NY HARB ENTRANCE 0950 76 75 130/ 8/ 10 1023.3 2/ 9 20S FIRE ISLAND 0950 76 74 130/ 10/ 12 1023.0 3/ 9 GREAT SOUTH BAY 1000 75 79 100/ 6/ 8 N/A 23 SSW MONTAUK P 0950 74 77 140/ 10/ 12 1024.4 2/ 9 15 E BARNEGAT LI 1000 76 N/A 3/ 8 HUDSON CANYON 1050 77 78 1023.0 3/ 6 KINGS POINT 1000 71 76 1024.0 EXECUTION ROCKS 1000 72 60/ 4/ 4 N/A CENTRAL LI SOUND 1000 73 76 130/ 8/ 10 N/A 1 EASTERN LI SOUND 1000 70 72 60/ 6/ 6 N/A ROBBINS REEF 1012 74 120/ 3/ 3 1023.6 $$ >>>>>>>>>>>>>>>>>>>>>>>>>>>> KEY <<<<<<<<<<<<<<<<<<<<<<<<<<< > < > SKY/WX - Sky Condition/Present Weather < > TMP - Temperature in Fahrenheit < > DP - Dew Point in Fahrenheit < > RH - Relative Humidity in Percent < > WIND - Direction (from) and Speed in MPH < > PRES - Mean Sea Level Pressure (inches of Hg) < > WCI - Wind Chill Index < > VSB - VISIBILITY IN MILES < > HX - HEAT INDEX < > TC - TEMPERATURE IN CELSIUS < > VRB - VARIABLE WIND DIRECTION < > < >>>>>>>>>>>>>>>>>>>>>>>>>>>> KEY <<<<<<<<<<<<<<<<<<<<<<<<<<<

USA.gov is the U.S. government's official web portal to all federal, state and local government web resources and services.